Weather History for PHKO - February, 2013

Change the Weather History Date:

Wednesday, February 13, 2013

  Actual Average Record
Temperature  
Mean Temperature 73 °F -  
Max Temperature 80 °F 79 °F 86 °F (1983)
Min Temperature 66 °F 66 °F 64 °F (1990)
Cooling Degree Days 8    
Growing Degree Days 23 (Base 50)    
Moisture  
Dew Point 53 °F    
Average Humidity 49    
Maximum Humidity 55    
Minimum Humidity 36    
Precipitation  
Precipitation 0.00 in - - ()
Sea Level Pressure  
Sea Level Pressure 30.04 in    
Wind  
Wind Speed 10 mph (ENE)    
Max Wind Speed 16 mph    
Max Gust Speed -    
Visibility 10 miles    
Events      
Averages and records for this station are not official NWS values.
T = Trace of Precipitation, MM = Missing Value Source: NWS Daily Summary

Daily Weather History Graph

Daily Weather History Graph

Search for Another Location

Airport or City:

Trip Planner

Search our weather history database for the weather conditions in past years. The results will help you decide how hot, cold, wet, or windy it might be!

Date:

Astronomy

Feb. 13, 2013 Rise Set
Actual Time 6:53 AM HST 6:23 PM HST
Civil Twilight 6:31 AM HST 6:45 PM HST
Nautical Twilight 6:05 AM HST 7:11 PM HST
Astronomical Twilight 5:39 AM HST 7:37 PM HST
Moon 9:07 AM HST (2/13) 9:53 PM HST (2/13)
Length of Visible Light 12h 14m
Length of Day
11h 29m
Waxing Crescent, 15% of the Moon is Illuminated
Feb 13
Waxing Crescent
Feb 17
First Quarter
Feb 25
Full
Mar 4
Last Quarter
Mar 11
New

Hourly Weather History & Observations

Time (HST) Temp. Heat Index Dew Point Humidity Pressure Visibility Wind Dir Wind Speed Gust Speed Precip Events Conditions
12:53 AM 70.0 °F - 52.0 °F 53% 30.09 in 10.0 mi NNE 16.1 mph - N/A   Clear
1:53 AM 70.0 °F - 50.0 °F 49% 30.06 in 10.0 mi NNE 12.7 mph - N/A   Clear
2:53 AM 69.1 °F - 50.0 °F 51% 30.04 in 10.0 mi NNE 10.4 mph - N/A   Clear
3:53 AM 66.9 °F - 48.9 °F 52% 30.02 in 10.0 mi NE 12.7 mph - N/A   Clear
4:53 AM 68.0 °F - 50.0 °F 52% 30.02 in 10.0 mi NE 9.2 mph - N/A   Clear
5:53 AM 68.0 °F - 48.0 °F 49% 30.03 in 10.0 mi NE 10.4 mph - N/A   Clear
6:53 AM 68.0 °F - 48.0 °F 49% 30.04 in 10.0 mi ENE 8.1 mph - N/A   Clear
7:53 AM 71.1 °F - 48.0 °F 44% 30.06 in 10.0 mi NE 10.4 mph - N/A   Clear
8:53 AM 77.0 °F - 48.0 °F 36% 30.06 in 10.0 mi NNE 8.1 mph - N/A   Clear
9:53 AM 75.9 °F - 57.0 °F 52% 30.07 in 10.0 mi Calm Calm - N/A   Overcast
10:53 AM 78.1 °F - 57.0 °F 48% 30.07 in 10.0 mi South 6.9 mph - N/A   Mostly Cloudy
11:53 AM 80.1 °F 80.2 °F 55.9 °F 43% 30.06 in 10.0 mi SSW 10.4 mph - N/A   Mostly Cloudy
12:53 PM 78.1 °F - 55.9 °F 46% 30.04 in 10.0 mi South 9.2 mph - N/A   Overcast
1:53 PM 78.1 °F - 55.9 °F 46% 30.01 in 10.0 mi South 9.2 mph - N/A   Overcast
2:53 PM 79.0 °F - 57.0 °F 47% 29.99 in 10.0 mi South 11.5 mph - N/A   Scattered Clouds
3:53 PM 78.1 °F - 55.9 °F 46% 29.98 in 10.0 mi South 8.1 mph - N/A   Mostly Cloudy
4:53 PM 77.0 °F - 57.0 °F 50% 29.99 in 10.0 mi SSE 12.7 mph - N/A   Overcast
5:53 PM 75.9 °F - 57.9 °F 54% 30.00 in 10.0 mi South 9.2 mph - N/A   Overcast
6:53 PM 75.0 °F - 57.9 °F 55% 30.02 in 10.0 mi SW 4.6 mph - N/A   Overcast
7:53 PM 75.0 °F - 54.0 °F 48% 30.03 in 10.0 mi NNE 4.6 mph - N/A   Overcast
8:53 PM 75.0 °F - 53.1 °F 46% 30.04 in 10.0 mi NNE 3.5 mph - N/A   Overcast
9:53 PM 73.0 °F - 52.0 °F 48% 30.05 in 10.0 mi North 9.2 mph - N/A   Overcast
10:53 PM 72.0 °F - 52.0 °F 49% 30.06 in 10.0 mi North 8.1 mph - N/A   Overcast
11:53 PM 71.1 °F - 53.1 °F 53% 30.04 in 10.0 mi NNE 6.9 mph - N/A   Overcast